Location: Arboyeti
(42.1122°N, 44.6017°E)
Time: 17:09:49
(UTC+00:00)

ADEOS Rocket - Pass Details

Date: 19 April 2021
Orbit: 859 x 1305 km, 98.7° (Epoch: 07 May)

Event Time Altitude Azimuth Distance (km) Brightness Sun altitude
Exits shadow 23:37:32 24° 157° (SSE) 1,999 4.4 -25.4°
Maximum altitude 23:41:40 80° 74° (ENE) 1,105 3.2 -24.9°
Drops below altitude 10° 23:48:43 10° 348° (NNW) 3,100 6.0 -24.0°
Sets 23:51:28 0° 348° (NNW) 4,124 6.7 -23.6°
